Regional Weather Roundup
Issued by NWS

Home | Current Version | Previous Version | Text Only | Print | Product List | Glossary On
Versions: 1 2 3 4 5 6 7 8 9 10 11 12 13 14 15 16 17 18 19 20 21 22 23 24 25 26 27 28
000
ASUS45 KCYS 250510
RWRWY

WYOMING REGIONAL WEATHER ROUNDUP
NATIONAL WEATHER SERVICE CHEYENNE WY
1100 PM MDT FRI OCT 24 2014

NOTE:  "FAIR" INDICATES FEW OR NO CLOUDS BELOW 12,000 FEET
WITH NO SIGNIFICANT WEATHER AND/OR OBSTRUCTIONS TO VISIBILITY.

WYZ001-250600-
YELLOWSTONE NATIONAL PARK

CITY           SKY/WX    TMP DP  RH WIND       PRES   REMARKS
LK YELLOWSTONE   N/A     29  23  78 NW5       30.29  WCI  24
W YELLOWSTONE  NOT AVBL

$$
WYZ002>013-054>058-071-098>099-250600-
NORTHERN WYOMING

CITY           SKY/WX    TMP DP  RH WIND       PRES   REMARKS
JACKSON        CLEAR     39  27  60 SE5       30.22S
CODY           CLEAR     39  30  70 S7        30.12S WCI  34
GREYBULL       CLEAR     48  34  58 N3        30.08R
WORLAND        CLEAR     44  33  65 NE5       30.09R
SHERIDAN       CLEAR     34  28  79 CALM      30.14R
BUFFALO        CLEAR     42  31  64 CALM      30.16S
GILLETTE       CLEAR     33  28  81 CALM      30.14R
HULETT         MOCLDY    50  30  46 NE5       30.16S
NEWCASTLE      FAIR      45  32  61 CALM      30.13R

$$
WYZ014>020-022>026-101>103-250600-
CENTRAL WYOMING

CITY           SKY/WX    TMP DP  RH WIND       PRES   REMARKS
BIG PINEY      PTCLDY    37  19  48 NE3       30.29R
PINEDALE       PTCLDY    32  25  74 W5        30.30  WCI  27
DUBOIS         FAIR      43  19  39 NW16      30.23S
LANDER         CLEAR     55  20  25 CALM      30.15R
RIVERTON       CLEAR     53  20  27 NW10      30.16R
CASPER         CLEAR     47  25  42 NW10      30.17R
DOUGLAS        CLEAR     46  21  37 E3        30.15R

$$
WYZ021-027>030-104>119-250600-
SOUTHERN WYOMING

CITY           SKY/WX    TMP DP  RH WIND       PRES   REMARKS
EVANSTON       CLEAR     53  21  28 E3        30.28R
KEMMERER       CLEAR     43  25  49 N6        30.30S
FORT BRIDGER   FAIR      52  21  29 W8        30.31R
ROCK SPRINGS   PTCLDY    52  28  39 CALM      30.28R
DIXON          FAIR      40  32  71 CALM      30.33R
RAWLINS        CLEAR     48  24  39 SW9       30.28S
SARATOGA       FAIR      41  27  56 SE3       30.32S
LARAMIE        CLEAR     42  22  44 S10       30.32R
CHEYENNE       CLEAR     48  26  42 NW5       30.24S
TORRINGTON     CLEAR     53  29  39 SE9       30.12R
PINE BLUFFS    FAIR      43  32  65 W5        30.21R

$$



USA.gov is the U.S. government's official web portal to all federal, state and local government web resources and services.